Find Starlink 37351

NORAD ID: 68743 Int'l Des: 2026-082 Owner: SPXS Country: US Constellation: starlink operational
LEOCIRCULARRETROGRADE

Live Position

Loading 3D Globe...

About Starlink 37351

Description loading...

Upcoming Passes

Passes for default location (London). Set your location on the main map for personalized predictions.

Altitude History

Loading altitude history...

Two-Line Element Set

1 68743C 26082Q 26105.46368056 .00379610 00000+0 44242-3 0 1051
2 68743 97.2878 326.8909 0010824 269.6298 15.9579 16.08467392 18
Epoch: Apr 15, 2026 • Age: 22 hours

Current Status

Altitude 270.8 km
Velocity 7.75 km/s
Sub-Earth Point 82.42°N, 76.81°E
Launch Date Apr 15, 2026
Age N/A
Type internet

Technical Details

Classification Payload
Mass 575.00 kg
Dry Mass 530.00 kg
Total Mass 575.00 kg
Length 0.30 m
Diameter 4.10 m
Span 29.00 m
Shape Box + pan
Manufacturer SPXS
Bus Type Starlink V2MO
Phase Status In Orbit
Owner/State SPXS/US

Most Searched